GW6043 Weather Reports


time (UTC)temp
C
wind
direction
speed
KPH
gust
KPH
rain 1hr
cm
rain 24hr
cm
rain mn
cm
humidity
%
barometer
mb
20260505195948 27 190 17.7 27.4 0.00 0.00 0.00 39 1008.6
20260505195445 27 197 16.1 24.1 0.00 0.00 0.00 40 1008.6
20260505194943 27 201 14.5 24.1 0.00 0.00 0.00 40 1008.5
20260505194440 27 191 17.7 24.1 0.00 0.00 0.00 38 1008.6
20260505193940 27 177 17.7 24.1 0.00 0.00 0.00 39 1008.6
20260505193438 27 180 11.3 20.9 0.00 0.00 0.00 40 1008.5
20260505192935 27 211 6.4 8.0 0.00 0.00 0.00 40 1009.0
20260505192433 28 180 12.9 17.7 0.00 0.00 0.00 40 1008.7
20260505191931 27 193 11.3 14.5 0.00 0.00 0.00 39 1008.7
20260505191430 27 258 17.7 24.1 0.00 0.00 0.00 39 1008.7
20260505190926 28 323 8.0 12.9 0.00 0.00 0.00 39 1008.8
20260505190421 27 189 8.0 9.7 0.00 0.00 0.00 41 1009.1
20260505185916 27 150 12.9 22.5 0.00 0.00 0.00 39 1009.2
20260505185414 27 188 9.7 11.3 0.00 0.00 0.00 39 1009.3
20260505184910 27 183 11.3 16.1 0.00 0.00 0.00 39 1009.4
20260505184407 27 169 4.8 9.7 0.00 0.00 0.00 40 1009.4
20260505183904 27 146 14.5 24.1 0.00 0.00 0.00 40 1009.3
20260505183401 27 188 12.9 16.1 0.00 0.00 0.00 39 1009.6
20260505182857 27 189 4.8 8.0 0.00 0.00 0.00 40 1009.5
20260505182355 27 190 8.0 11.3 0.00 0.00 0.00 40 1009.2
20260505181851 27 176 6.4 8.0 0.00 0.00 0.00 40 1009.7
20260505181348 26 198 8.0 11.3 0.00 0.00 0.00 40 1009.5
20260505180845 27 130 9.7 12.9 0.00 0.00 0.00 41 1009.6
20260505180341 27 156 6.4 8.0 0.00 0.00 0.00 40 1009.8
20260505175833 27 150 8.0 12.9 0.00 0.00 0.00 41 1009.6
20260505175329 27 173 9.7 14.5 0.00 0.00 0.00 40 1010.0
20260505174825 27 255 4.8 8.0 0.00 0.00 0.00 41 1009.9
20260505174323 27 276 6.4 8.0 0.00 0.00 0.00 40 1009.9
20260505173819 27 276 8.0 11.3 0.00 0.00 0.00 42 1010.0
20260505173315 26 179 6.4 11.3 0.00 0.00 0.00 42 1010.1
20260505172812 26 185 9.7 11.3 0.00 0.00 0.00 43 1010.1
20260505172309 27 148 14.5 25.7 0.00 0.00 0.00 41 1010.0
20260505171804 27 270 11.3 20.9 0.00 0.00 0.00 42 1010.1
20260505171302 26 200 6.4 9.7 0.00 0.00 0.00 42 1010.0
20260505170758 27 168 11.3 14.5 0.00 0.00 0.00 41 1010.2
20260505170255 27 178 12.9 14.5 0.00 0.00 0.00 42 1010.3
20260505165750 27 211 14.5 16.1 0.00 0.00 0.00 40 1010.4
20260505165246 26 270 8.0 11.3 0.00 0.00 0.00 44 1010.3
20260505164742 26 230 6.4 8.0 0.00 0.00 0.00 42 1010.3
20260505164239 26 244 6.4 11.3 0.00 0.00 0.00 42 1010.6
20260505163737 26 191 11.3 12.9 0.00 0.00 0.00 40 1010.6
20260505163236 26 240 16.1 20.9 0.00 0.00 0.00 41 1010.8
20260505162732 26 216 19.3 27.4 0.00 0.00 0.00 42 1010.6
20260505162229 26 251 11.3 25.7 0.00 0.00 0.00 43 1010.9
20260505161726 26 203 16.1 20.9 0.00 0.00 0.00 42 1010.8
20260505161224 26 233 11.3 12.9 0.00 0.00 0.00 43 1011.1
20260505160721 26 294 9.7 12.9 0.00 0.00 0.00 43 1010.9
20260505160219 25 177 14.5 27.4 0.00 0.00 0.00 43 1010.9
20260505153158 25 192 11.3 12.9 0.00 0.00 0.00 45 1011.2
20260505152654 25 313 12.9 17.7 0.00 0.00 0.00 47 1011.2
20260505152150 25 254 4.8 9.7 0.00 0.00 0.00 51 1011.1
20260505151646 24 206 6.4 9.7 0.00 0.00 0.00 51 1011.3
20260505151143 25 242 6.4 8.0 0.00 0.00 0.00 50 1011.2
20260505150639 24 211 14.5 24.1 0.00 0.00 0.00 51 1011.0
20260505150137 25 292 3.2 4.8 0.00 0.00 0.00 51 1011.3
20260505140605 22 238 17.7 22.5 0.00 0.00 0.00 54 1011.8
20260505125019 18 257 6.4 8.0 0.00 0.00 0.00 64 1012.2
20260505124515 18 276 1.6 3.2 0.00 0.00 0.00 65 1012.1
20260505124012 18 187 3.2 4.8 0.00 0.00 0.00 67 1012.3
20260505123508 18 161 4.8 4.8 0.00 0.00 0.00 66 1012.3
20260505123004 18 177 4.8 8.0 0.00 0.00 0.00 67 1012.3
20260505122501 17 13 0.0 1.6 0.00 0.00 0.00 68 1012.1
20260505121958 17 353 0.0 1.6 0.00 0.00 0.00 68 1012.5
20260505121455 17 238 1.6 3.2 0.00 0.00 0.00 68 1012.5
20260505120951 17 158 1.6 4.8 0.00 0.00 0.00 69 1012.2
20260505120447 17 265 1.6 3.2 0.00 0.00 0.00 68 1012.4
20260505115946 17 71 3.2 3.2 0.00 0.00 0.00 69 1012.4
20260505115443 17 9 1.6 3.2 0.00 0.00 0.00 69 1012.4
20260505114942 17 138 4.8 8.0 0.00 0.00 0.00 70 1012.2
20260505114437 17 329 0.0 0.0 0.00 0.00 0.00 71 1012.2
20260505113934 16 312 1.6 1.6 0.00 0.00 0.00 72 1012.2
20260505113430 16 315 0.0 1.6 0.00 0.00 0.00 73 1012.2
20260505112926 16 308 1.6 1.6 0.00 0.00 0.00 72 1012.0
20260505112424 17 323 0.0 0.0 0.00 0.00 0.00 70 1011.8
20260505111920 16 316 3.2 3.2 0.00 0.00 0.00 70 1012.0
20260505111415 16 330 0.0 1.6 0.00 0.00 0.00 72 1012.1
20260505110911 16 128 4.8 4.8 0.00 0.00 0.00 72 1011.9
20260505110408 15 136 6.4 9.7 0.00 0.00 0.00 73 1011.8
20260505101839 15 234 4.8 4.8 0.00 0.00 0.00 74 1011.4
20260505101334 13 218 6.4 9.7 0.00 0.00 0.00 76 1011.5
20260505100830 13 310 0.0 0.0 0.00 0.00 0.00 79 1011.5
20260505100327 13 328 0.0 0.0 0.00 0.00 0.00 79 1011.2
20260505095822 13 324 0.0 0.0 0.00 0.00 0.00 79 1011.4
20260505095320 13 330 0.0 0.0 0.00 0.00 0.00 78 1011.2
20260505094816 13 334 0.0 0.0 0.00 0.00 0.00 77 1011.3
20260505094313 14 48 1.6 1.6 0.00 0.00 0.00 77 1011.2
20260505093814 14 18 3.2 3.2 0.00 0.00 0.00 76 1011.2
20260505093312 13 0 0.0 0.0 0.00 0.00 0.00 77 1011.3
20260505092808 14 344 0.0 0.0 0.00 0.00 0.00 76 1011.1
20260505092307 14 325 0.0 0.0 0.00 0.00 0.00 76 1011.1
20260505091804 14 324 0.0 0.0 0.00 0.00 0.00 76 1011.0
20260505091302 14 301 0.0 0.0 0.00 0.00 0.00 75 1011.0
20260505090759 15 329 0.0 0.0 0.00 0.00 0.00 74 1011.0
20260505090257 15 262 3.2 3.2 0.00 0.00 0.00 73 1011.2
20260505085754 15 287 1.6 3.2 0.00 0.00 0.00 72 1011.2
20260505085252 15 281 1.6 1.6 0.00 0.00 0.00 73 1011.0
20260505084749 15 278 3.2 3.2 0.00 0.00 0.00 72 1011.0
20260505084249 15 310 3.2 3.2 0.00 0.00 0.00 72 1011.1
20260505083745 15 192 3.2 3.2 0.00 0.00 0.00 72 1011.0
20260505083242 15 233 1.6 1.6 0.00 0.00 0.00 72 1011.0
20260505082738 15 130 1.6 1.6 0.00 0.00 0.00 72 1011.3
20260505082236 15 292 1.6 1.6 0.00 0.00 0.00 73 1011.0
20260505081731 15 331 0.0 1.6 0.00 0.00 0.00 73 1011.0
20260505081229 15 46 1.6 1.6 0.00 0.00 0.00 73 1011.1
20260505080726 15 341 0.0 0.0 0.00 0.00 0.00 72 1011.1
20260505080221 15 319 0.0 0.0 0.00 0.00 0.00 72 1011.0
20260505075717 15 320 0.0 0.0 0.00 0.00 0.00 73 1011.0
20260505075214 15 320 0.0 0.0 0.00 0.00 0.00 72 1010.7
20260505074712 15 321 0.0 0.0 0.00 0.00 0.00 72 1010.7
20260505074209 15 322 0.0 0.0 0.00 0.00 0.00 71 1010.8
20260505073706 16 291 0.0 1.6 0.00 0.00 0.00 70 1010.7
20260505073204 16 246 1.6 1.6 0.00 0.00 0.00 69 1010.5
20260505072700 16 290 1.6 1.6 0.00 0.00 0.00 68 1010.6
20260505072156 16 258 1.6 1.6 0.00 0.00 0.00 68 1010.7
20260505071652 16 260 3.2 3.2 0.00 0.00 0.00 68 1010.5
20260505071150 16 294 0.0 1.6 0.00 0.00 0.00 67 1010.5
20260505070646 16 261 1.6 3.2 0.00 0.00 0.00 68 1010.5
20260505070143 17 304 1.6 1.6 0.00 0.00 0.00 67 1010.6
20260505065639 17 244 4.8 9.7 0.00 0.00 0.00 65 1010.6
20260505065136 17 242 6.4 8.0 0.00 0.00 0.00 66 1010.7
20260505064632 17 243 4.8 8.0 0.00 0.00 0.00 66 1010.5
20260505064131 17 238 3.2 3.2 0.00 0.00 0.00 66 1010.6
20260505063628 17 193 4.8 4.8 0.00 0.00 0.00 66 1010.5
20260505063124 17 222 6.4 9.7 0.00 0.00 0.00 65 1010.6
20260505062620 17 219 4.8 8.0 0.00 0.00 0.00 65 1010.6
20260505062118 17 304 1.6 3.2 0.00 0.00 0.00 65 1010.7
20260505061615 17 144 3.2 3.2 0.00 0.00 0.00 65 1011.0
20260505061113 17 263 1.6 1.6 0.00 0.00 0.00 65 1010.8
20260505060610 17 267 4.8 4.8 0.00 0.00 0.00 64 1010.9
20260505060107 17 207 3.2 4.8 0.00 0.00 0.00 64 1010.9
20260505055602 17 260 3.2 3.2 0.00 0.00 0.00 64 1010.9
20260505055059 17 238 3.2 3.2 0.00 0.00 0.00 64 1011.1
20260505054556 17 184 1.6 4.8 0.00 0.00 0.00 64 1010.9
20260505054054 17 207 3.2 3.2 0.00 0.00 0.00 64 1010.9
20260505053551 17 287 1.6 1.6 0.00 0.00 0.00 63 1010.8
20260505053048 17 286 3.2 3.2 0.00 0.00 0.00 63 1011.0
20260505052544 17 203 3.2 3.2 0.00 0.00 0.00 63 1010.8
20260505052042 17 180 3.2 3.2 0.00 0.00 0.00 63 1010.7
20260505051539 17 201 3.2 3.2 0.00 0.00 0.00 62 1011.0
20260505051037 17 183 3.2 3.2 0.00 0.00 0.00 63 1010.7
20260505050535 17 205 3.2 3.2 0.00 0.00 0.00 62 1011.1
20260505041503 17 213 3.2 3.2 0.00 0.00 0.00 61 1010.6
20260505041000 17 210 1.6 3.2 0.00 0.00 0.00 60 1010.6
20260505040457 17 326 1.6 1.6 0.00 0.00 0.00 60 1010.4
20260505035954 18 6 1.6 1.6 0.00 0.00 0.00 60 1010.5
20260505035450 18 230 0.0 1.6 0.00 0.00 0.00 59 1010.5
20260505034947 18 179 1.6 1.6 0.00 0.00 0.00 59 1010.5
20260505034444 18 163 4.8 4.8 0.00 0.00 0.00 59 1010.3
20260505033941 18 181 4.8 4.8 0.00 0.00 0.00 59 1010.6
20260505033437 18 209 3.2 3.2 0.00 0.00 0.00 59 1010.6
20260505032936 18 210 1.6 3.2 0.00 0.00 0.00 58 1010.4
20260505032433 18 220 3.2 4.8 0.00 0.00 0.00 57 1010.2
20260505031929 18 280 1.6 1.6 0.00 0.00 0.00 57 1010.4
20260505031426 18 250 1.6 1.6 0.00 0.00 0.00 57 1010.5
20260505030923 18 271 0.0 1.6 0.00 0.00 0.00 56 1010.6
20260505030419 18 323 1.6 1.6 0.00 0.00 0.00 55 1010.4
20260505025914 18 292 3.2 3.2 0.00 0.00 0.00 54 1010.5
20260505025412 18 254 3.2 3.2 0.00 0.00 0.00 54 1010.3
20260505024911 19 167 1.6 1.6 0.00 0.00 0.00 53 1010.5
20260505024408 18 304 1.6 1.6 0.00 0.00 0.00 53 1010.4
20260505023905 18 256 3.2 3.2 0.00 0.00 0.00 53 1010.2
20260505023402 18 305 0.0 0.0 0.00 0.00 0.00 54 1010.1
20260505022859 18 1 1.6 1.6 0.00 0.00 0.00 53 1010.0
20260505022356 18 297 0.0 0.0 0.00 0.00 0.00 53 1010.5
20260505021853 19 337 0.0 0.0 0.00 0.00 0.00 52 1010.2
20260505021349 20 340 0.0 0.0 0.00 0.00 0.00 51 1010.3
20260505020845 19 295 3.2 3.2 0.00 0.00 0.00 50 1010.1
20260505020341 20 339 1.6 1.6 0.00 0.00 0.00 50 1010.1
20260505015838 20 129 6.4 8.0 0.00 0.00 0.00 50 1010.0
20260505015335 20 170 3.2 3.2 0.00 0.00 0.00 50 1010.1
20260505014833 20 202 4.8 8.0 0.00 0.00 0.00 49 1010.2
20260505014330 20 132 1.6 3.2 0.00 0.00 0.00 50 1010.1
20260505013826 20 356 0.0 0.0 0.00 0.00 0.00 49 1010.0
20260505013323 20 200 4.8 4.8 0.00 0.00 0.00 49 1009.9
20260505012822 20 45 1.6 1.6 0.00 0.00 0.00 49 1009.8
20260505012319 20 111 4.8 4.8 0.00 0.00 0.00 48 1009.9
20260505011815 20 126 3.2 3.2 0.00 0.00 0.00 48 1010.2
20260505011312 20 196 0.0 3.2 0.00 0.00 0.00 48 1010.0
20260505010808 20 200 1.6 3.2 0.00 0.00 0.00 48 1010.0
20260505010304 20 134 3.2 3.2 0.00 0.00 0.00 47 1010.0
20260505005800 20 207 3.2 3.2 0.00 0.00 0.00 47 1009.8
20260505005257 20 187 3.2 3.2 0.00 0.00 0.00 47 1009.7
20260505004755 20 183 1.6 3.2 0.00 0.00 0.00 47 1009.8
20260505004250 20 182 1.6 3.2 0.00 0.00 0.00 47 1009.7
20260505003748 21 298 3.2 4.8 0.00 0.00 0.00 47 1009.7
20260505003246 21 23 1.6 3.2 0.00 0.00 0.00 46 1009.4
20260505002742 21 90 1.6 3.2 0.00 0.00 0.00 46 1009.4
20260505002239 21 332 1.6 1.6 0.00 0.00 0.00 46 1009.4
20260505001737 21 142 6.4 8.0 0.00 0.00 0.00 45 1009.4
20260505001234 21 175 3.2 3.2 0.00 0.00 0.00 45 1009.5
20260505000731 21 199 3.2 3.2 0.00 0.00 0.00 45 1009.3
20260505000229 21 180 3.2 3.2 0.00 0.00 0.00 45 1009.4
20260504235725 21 117 4.8 4.8 0.00 0.00 0.00 45 1009.3
20260504235221 21 317 3.2 4.8 0.00 0.00 0.00 44 1009.4
20260504234719 21 21 1.6 1.6 0.00 0.00 0.00 45 1009.4
20260504234216 21 219 3.2 4.8 0.00 0.00 0.00 44 1009.1
20260504233712 21 153 6.4 8.0 0.00 0.00 0.00 44 1009.2
20260504233208 22 217 9.7 11.3 0.00 0.00 0.00 43 1009.1
20260504232705 22 173 6.4 9.7 0.00 0.00 0.00 44 1009.3
20260504232202 22 232 6.4 9.7 0.00 0.00 0.00 43 1009.3
20260504231659 22 166 4.8 8.0 0.00 0.00 0.00 43 1009.2
20260504231155 22 260 8.0 9.7 0.00 0.00 0.00 43 1009.1
20260504230651 22 183 4.8 4.8 0.00 0.00 0.00 43 1009.4
20260504230150 22 213 9.7 12.9 0.00 0.00 0.00 43 1009.4
20260504225648 22 147 6.4 9.7 0.00 0.00 0.00 43 1009.4
20260504225144 22 197 8.0 12.9 0.00 0.00 0.00 44 1009.3
20260504224641 22 142 6.4 9.7 0.00 0.00 0.00 44 1009.5
20260504224138 22 179 6.4 9.7 0.00 0.00 0.00 43 1009.5
20260504223635 22 187 8.0 11.3 0.00 0.00 0.00 43 1009.2
20260504223131 22 153 9.7 11.3 0.00 0.00 0.00 43 1009.5
20260504222628 22 159 16.1 24.1 0.00 0.00 0.00 43 1009.4
20260504222125 22 220 8.0 12.9 0.00 0.00 0.00 42 1009.4
20260504221622 22 136 8.0 12.9 0.00 0.00 0.00 43 1009.5
20260504221119 22 148 4.8 4.8 0.00 0.00 0.00 43 1009.5
20260504220615 22 161 8.0 11.3 0.00 0.00 0.00 43 1009.5
20260504220113 22 216 9.7 12.9 0.00 0.00 0.00 42 1009.6
20260504215609 23 154 11.3 14.5 0.00 0.00 0.00 42 1009.4
20260504215107 23 142 8.0 9.7 0.00 0.00 0.00 41 1009.5
20260504214603 23 269 8.0 9.7 0.00 0.00 0.00 42 1009.6
20260504214059 23 191 8.0 14.5 0.00 0.00 0.00 41 1009.4
20260504213555 23 182 4.8 4.8 0.00 0.00 0.00 42 1009.7
20260504213053 22 172 8.0 14.5 0.00 0.00 0.00 41 1009.6
20260504212548 23 172 9.7 16.1 0.00 0.00 0.00 41 1009.5
20260504212046 23 153 4.8 8.0 0.00 0.00 0.00 41 1009.8
20260504211542 23 284 3.2 4.8 0.00 0.00 0.00 41 1009.5
20260504211039 23 208 8.0 11.3 0.00 0.00 0.00 41 1009.4
20260504210536 23 199 4.8 4.8 0.00 0.00 0.00 41 1009.2
20260504210033 23 253 3.2 4.8 0.00 0.00 0.00 41 1009.3
20260504205531 23 276 8.0 8.0 0.00 0.00 0.00 40 1009.5
20260504205029 23 180 6.4 8.0 0.00 0.00 0.00 40 1009.4
20260504204526 23 193 4.8 4.8 0.00 0.00 0.00 41 1009.4
20260504204026 23 229 8.0 9.7 0.00 0.00 0.00 38 1009.4
20260504203523 23 152 6.4 9.7 0.00 0.00 0.00 41 1009.4
20260504203020 23 129 6.4 8.0 0.00 0.00 0.00 40 1009.3
20260504202516 23 183 8.0 11.3 0.00 0.00 0.00 41 1009.4
20260504202013 23 196 11.3 12.9 0.00 0.00 0.00 40 1009.9
20260504201510 23 180 6.4 9.7 0.00 0.00 0.00 41 1009.9
20260504201008 23 171 6.4 11.3 0.00 0.00 0.00 40 1009.7
20260504200504 23 190 3.2 3.2 0.00 0.00 0.00 41 1009.7